Wind_Speed
9 8 8 7 8 7 7 7 8 7 7 4 3 4 3 5 4 4 4 4 4 4 3 5 7 10 9 9 12 20 22 24 13 19 30 34 38 34 30 26 22 19 16
10 7 7 7 8 8 7 7 7 8 7 5 4 5 5 6 6 5 6 6 7 7 7 12 11 14 13 11 14 17 22 29 28 21 27 33 35 33 31 27 21 16 14
9 7 7 6 6 7 8 8 7 9 8 7 6 7 7 7 7 6 7 8 8 8 9 12 13 17 15 15 17 21 24 30 29 26 19 32 31 31 28 24 18 16 15
9 7 8 6 6 7 9 10 9 10 10 8 7 8 8 7 8 9 10 10 9 11 10 11 13 17 15 15 21 23 23 28 27 26 26 26 27 26 24 20 15 12 13
10 9 8 8 7 10 10 10 11 11 10 9 10 9 8 7 7 10 11 11 10 12 11 11 11 12 17 19 23 26 27 26 27 28 25 26 22 21 17 14 13 13 11
12 12 9 10 10 11 11 10 11 11 11 10 10 9 8 7 9 11 11 10 10 12 12 12 14 15 18 20 23 27 29 30 27 25 28 24 22 19 15 17 16 16 9
13 13 11 11 11 12 11 11 10 9 9 9 8 8 8 8 9 8 9 9 10 11 12 13 14 15 17 19 21 23 26 26 27 27 25 23 24 21 18 17 16 13 14
14 15 12 12 11 12 10 9 8 8 8 8 7 8 6 8 9 7 9 10 12 11 12 15 15 15 15 19 22 20 19 20 19 15 18 20 19 22 19 16 15 16 17
16 16 15 14 12 12 10 9 8 10 10 7 6 8 9 11 10 9 11 11 12 12 12 15 17 18 22 22 20 17 15 13 13 8 12 14 16 21 19 17 17 17 12
17 17 16 16 14 13 12 10 8 10 11 8 7 8 11 13 12 11 10 11 13 14 16 20 20 21 19 16 11 9 11 12 15 14 14 14 16 19 16 12 16 13 12
17 17 15 15 13 15 13 12 12 11 11 10 9 8 10 13 14 12 11 15 14 16 16 15 14 18 15 11 7 11 11 15 16 14 12 11 17 18 14 11 10 8 10
17 18 16 14 13 15 16 14 12 14 13 11 11 10 10 12 14 14 14 14 15 17 16 16 18 18 16 9 12 13 14 14 14 14 12 10 11 11 11 11 13 11 8
18 18 18 16 13 14 16 15 13 12 13 12 12 10 10 10 13 14 14 12 12 10 10 11 15 15 12 7 8 9 9 9 10 12 11 11 11 12 16 17 17 17 19
20 18 19 19 16 13 14 16 15 14 13 13 12 12 12 11 12 13 15 13 11 9 11 13 14 13 12 9 8 10 6 8 9 9 12 12 13 15 15 16 19 18 18
22 19 19 19 21 17 15 15 16 16 17 14 13 14 14 13 14 16 16 14 12 12 12 12 10 9 9 9 9 9 9 10 10 11 14 15 16 16 15 15 16 14 11
24 22 22 21 20 20 19 15 19 18 22 20 18 15 15 14 15 15 15 15 14 14 11 11 12 12 13 13 12 12 11 13 11 12 14 16 17 18 18 16 14 11 15
29 24 22 23 22 22 21 20 17 20 22 24 23 20 18 15 17 17 17 16 15 15 13 14 15 15 16 15 14 14 14 13 12 13 14 16 17 18 20 17 15 15 15
32 32 27 25 23 23 23 22 21 19 18 18 25 24 21 22 19 19 21 21 17 18 15 16 16 16 17 17 17 17 15 14 15 15 15 17 18 19 21 19 18 18 18
32 29 30 26 25 23 22 22 22 21 20 18 15 22 26 22 22 22 21 21 20 20 20 19 18 17 17 18 18 18 19 18 17 16 15 16 18 19 20 18 15 15 15
34 34 33 28 25 24 23 22 21 22 21 20 19 19 19 25 20 22 26 23 22 22 22 22 22 21 20 19 18 18 18 20 20 20 20 21 22 22 20 18 20 26 16
31 29 36 29 28 28 26 24 22 20 20 20 21 20 26 25 25 24 24 24 24 24 24 23 21 22 22 21 20 19 20 21 21 20 17 17 19 22 24 31 35 34 25
29 29 32 32 30 28 29 27 24 22 21 21 21 19 27 28 22 22 23 24 26 26 26 24 24 24 24 24 24 24 23 23 23 25 26 26 27 27 31 30 31 32 30
27 28 28 29 29 30 28 28 27 26 25 23 22 21 21 24 24 23 23 23 24 25 24 24 23 23 23 23 23 24 25 27 31 29 33 37 38 33 32 37 37 38 32
26 27 27 28 29 28 27 28 29 29 28 26 24 23 23 23 25 25 24 22 22 24 26 27 27 27 24 23 22 23 24 23 26 33 33 33 30 36 37 36 37 36 31
23 21 23 25 24 26 27 27 27 27 28 27 25 23 21 21 22 23 23 23 22 22 24 25 25 27 27 28 27 26 25 28 29 30 34 35 42 41 41 41 42 36 32
24 18 17 19 21 20 23 24 26 27 26 26 26 25 23 22 22 22 24 23 22 23 23 23 26 28 28 27 27 25 27 26 28 30 31 37 42 42 42 46 43 37 31
Wind_Direction
171 174 175 173 172 154 145 154 157 150 149 149 160 171 163 131 123 109 102 135 155 156 132 134 150 166 160 138 150 143 138 128 114 114 131 123 126 136 141 138 138 143 135
168 173 178 169 169 162 158 160 157 148 147 158 159 156 152 129 119 110 95 111 138 136 122 126 133 148 141 134 136 127 138 131 118 126 124 120 127 137 137 140 137 135 146
164 175 160 160 160 162 161 162 147 142 145 149 148 146 135 122 112 105 101 105 115 122 120 126 129 148 139 145 133 130 128 128 130 125 114 125 130 139 138 137 138 141 139
158 162 151 148 136 145 155 155 146 137 138 140 139 137 128 122 115 115 110 105 106 108 113 121 130 145 139 140 139 134 127 126 125 122 128 126 131 138 141 142 138 135 137
153 153 142 129 120 128 141 146 140 131 132 135 137 135 128 122 124 123 114 109 105 108 111 113 117 130 139 142 135 136 133 128 127 127 127 129 137 152 152 151 148 146 130
158 156 144 133 126 132 133 136 135 134 137 131 137 140 136 130 133 128 121 120 118 118 117 112 117 127 132 130 134 139 138 133 130 131 141 146 156 160 165 165 156 151 131
163 162 154 145 138 135 138 137 141 142 144 146 137 138 138 144 145 135 118 127 131 129 124 122 115 126 128 132 136 143 145 138 139 142 148 157 166 172 164 165 164 156 136
168 167 163 154 146 141 142 141 148 149 149 132 130 138 137 144 146 142 130 135 139 139 128 129 128 135 137 133 132 126 134 147 156 147 153 161 164 168 166 163 151 127 125
174 173 171 165 158 155 149 145 147 148 149 146 125 132 140 146 146 147 136 131 137 137 127 128 133 126 136 134 128 126 129 142 156 138 131 146 162 172 167 150 151 148 136
180 179 177 176 177 172 163 155 150 146 148 148 130 132 145 146 146 142 142 140 139 127 137 137 140 137 135 136 127 137 138 145 145 137 121 129 145 162 167 163 165 163 147
181 181 181 180 184 181 172 164 153 147 146 144 135 135 140 149 155 155 151 146 132 135 141 148 148 149 141 132 110 132 139 149 154 150 142 129 153 163 173 177 173 174 163
178 181 183 182 178 181 178 168 156 150 144 141 145 141 146 155 161 160 156 159 151 145 147 153 153 152 151 124 116 113 134 139 150 153 144 131 131 144 158 170 170 173 169
179 181 182 183 181 185 178 170 164 160 157 157 155 153 155 158 160 157 154 154 152 150 157 168 168 170 168 156 137 134 141 148 145 148 150 142 143 147 148 144 140 139 133
184 185 184 182 183 183 183 182 179 177 173 172 170 163 161 166 171 172 174 173 174 183 177 178 184 187 190 188 176 173 167 169 168 168 158 152 146 144 143 143 137 131 122
186 186 187 188 188 186 189 187 192 195 189 186 189 183 174 177 184 182 181 182 177 173 168 170 172 177 177 178 177 182 183 186 182 174 169 165 160 160 160 160 156 155 146
188 188 189 190 191 194 191 194 200 204 207 209 207 193 198 199 192 188 189 192 191 187 175 175 182 186 189 191 193 193 194 194 190 183 178 173 174 174 170 170 172 171 155
190 192 191 190 192 193 196 199 200 216 220 219 224 221 214 207 205 205 203 204 208 204 199 197 199 200 205 206 205 205 206 204 198 192 189 184 181 179 175 176 177 170 160
191 194 192 197 198 198 200 202 206 208 207 215 228 227 224 224 220 213 212 213 200 206 212 214 214 213 213 213 213 214 211 205 204 199 194 190 186 183 181 184 183 177 162
189 193 195 196 201 203 204 208 211 213 215 215 204 216 220 218 219 221 223 211 211 215 219 225 226 224 221 219 219 218 215 212 207 201 196 193 192 190 190 189 182 161 136
194 195 191 193 196 201 208 212 215 217 217 217 215 216 202 206 205 209 213 212 215 217 219 222 225 226 225 224 223 220 217 212 208 203 201 197 195 192 187 171 158 144 135
195 194 194 192 197 203 207 211 213 215 218 220 224 218 210 202 211 214 214 215 218 220 222 225 227 228 228 227 225 220 217 216 215 214 208 200 191 186 181 173 166 161 158
196 195 193 199 197 200 205 209 213 216 219 221 226 222 225 218 220 221 221 222 223 223 224 225 229 230 229 226 223 223 223 220 213 207 200 192 186 182 178 169 165 162 161
194 196 197 200 203 204 199 204 209 216 222 225 227 219 217 215 220 223 224 225 224 224 225 226 228 232 233 232 229 227 225 223 223 215 199 194 188 181 178 167 166 165 167
198 200 198 199 198 204 213 208 207 211 216 220 223 220 219 216 215 223 227 228 225 227 228 229 232 233 234 233 231 230 231 226 223 228 220 197 188 175 166 166 165 168 170
190 198 203 196 203 205 200 211 219 216 215 218 220 221 222 223 224 222 227 228 226 228 232 234 236 241 240 239 239 237 232 226 225 220 209 192 188 176 167 165 170 172 172
175 187 195 215 203 207 224 211 212 222 218 217 220 223 222 222 225 226 225 229 230 230 230 234 240 244 245 243 240 231 232 233 225 215 198 189 178 170 165 169 171 169 171
Height
729 731 734 736 738 739 741 743 745 746 747 749 750 751 751 751 752 752 752 752 753 753 755 756 758 760 762 765 767 769 772 777 782 790 796 799 808 817 825 831 836 841 843
729 731 734 735 737 739 741 743 744 745 747 749 750 751 751 752 754 754 754 754 754 755 757 758 760 762 765 766 770 771 776 779 784 790 798 803 812 822 827 834 839 842 847
729 731 733 735 737 738 740 742 744 745 747 749 750 751 753 754 755 756 756 756 756 757 759 760 762 764 767 770 774 777 781 784 789 795 801 809 818 825 830 835 841 845 849
729 731 733 735 736 738 740 743 744 746 748 750 751 753 755 756 757 758 760 759 759 760 761 763 765 767 770 772 775 778 781 787 792 798 807 813 820 827 831 836 842 846 850
729 732 734 735 737 739 742 744 745 747 749 751 752 754 756 758 759 760 762 763 763 764 765 766 768 769 772 774 776 780 784 790 795 801 809 816 823 829 832 837 841 845 851
729 732 734 736 738 740 743 746 748 749 751 752 754 756 759 760 761 762 764 765 766 767 768 771 773 775 776 779 782 784 787 792 797 803 810 816 824 829 833 837 841 845 851
729 732 734 737 739 741 744 747 749 751 753 754 756 757 760 761 763 765 766 767 768 770 772 774 776 778 782 784 787 791 795 798 801 805 811 817 823 827 831 837 840 844 847
728 731 734 737 740 742 744 746 749 752 754 756 757 759 761 762 764 766 768 769 771 773 775 778 780 782 784 788 792 796 800 804 807 810 813 817 821 826 831 835 839 842 848
726 729 733 736 740 742 745 747 748 751 755 757 759 760 762 764 766 768 770 771 773 776 779 781 784 786 789 792 796 800 804 807 810 812 815 817 822 826 830 834 839 842 847
724 728 732 735 738 742 744 747 749 752 755 758 760 762 764 766 769 771 773 774 776 778 782 785 788 790 793 796 799 801 804 808 810 813 816 820 823 828 832 835 838 840 845
721 727 731 734 737 741 744 747 749 752 755 758 761 763 766 768 770 773 775 777 780 782 785 789 792 794 796 799 800 801 805 807 811 815 818 821 824 828 832 834 836 839 843
718 724 729 733 736 739 742 746 750 752 756 758 761 764 767 769 771 774 777 780 782 783 787 790 793 796 799 801 802 804 807 809 812 815 818 822 824 828 830 833 836 840 843
715 721 726 731 735 738 742 745 749 753 756 759 761 764 767 769 772 775 778 781 784 788 789 791 794 797 800 802 804 806 809 812 815 818 821 824 827 829 830 834 837 839 841
711 717 723 728 733 737 741 744 747 751 754 757 759 762 766 769 772 775 778 781 784 787 790 792 794 797 800 802 805 807 810 813 816 819 821 824 826 830 833 836 838 842 845
707 713 719 724 729 734 738 742 745 747 750 754 757 760 763 767 770 772 775 778 782 785 787 791 794 796 799 801 805 807 810 812 816 818 820 823 826 830 834 838 840 843 845
701 707 713 719 724 729 734 738 741 744 747 750 753 756 760 764 767 770 774 777 780 783 786 789 792 794 797 800 803 806 808 810 813 815 818 820 823 827 831 835 838 841 844
694 701 707 713 719 723 728 732 736 740 744 748 750 754 757 760 764 768 772 775 778 780 783 785 788 790 793 796 799 801 804 807 809 812 814 817 820 824 828 832 836 838 841
687 694 700 706 712 717 722 727 731 735 739 743 746 750 754 757 761 764 768 771 774 777 780 781 783 786 788 791 794 797 800 803 805 807 810 814 817 820 824 828 832 835 838
679 686 693 699 706 711 717 722 725 729 733 736 741 743 747 752 756 759 762 765 768 771 774 776 778 780 783 785 788 791 794 797 799 803 806 810 814 817 821 825 830 836 842
671 677 684 692 700 706 711 715 719 723 727 731 734 737 740 745 749 751 753 757 760 762 765 768 770 773 776 778 781 784 787 789 791 794 798 800 805 810 816 822 826 830 842
665 673 678 686 692 697 703 708 712 717 720 723 726 730 731 735 740 744 747 749 752 755 758 760 763 765 768 770 772 774 777 780 783 788 793 797 801 805 808 809 812 816 828
658 664 672 676 681 688 692 699 705 709 713 715 718 722 724 729 733 736 739 741 743 746 749 751 754 756 758 760 762 765 768 771 773 775 778 783 790 795 799 804 812 815 821
651 656 663 669 674 678 683 689 694 700 704 707 710 714 715 720 724 727 730 732 735 738 741 743 745 747 749 751 753 755 757 758 760 764 767 769 773 780 791 795 801 807 814
643 649 654 659 664 671 678 680 682 686 692 696 700 703 706 708 711 717 720 723 725 728 730 732 733 735 738 740 742 743 746 749 751 754 759 765 773 773 779 790 798 804 813
636 645 650 652 658 662 663 671 677 679 681 686 689 693 696 700 704 705 710 713 714 717 720 723 724 725 727 729 730 731 734 736 738 741 747 753 757 767 771 782 792 801 807
627 638 646 653 651 656 665 663 664 672 673 675 680 683 686 689 692 695 696 703 706 707 708 711 713 715 716 717 719 721 723 727 732 736 741 747 753 759 767 773 786 796 805